Date String (YYYY-MM-DD hh:mm:ss) UTC,Instrument flags,absolute air pressure of the measurement (hPa),sample flow rate (lpm),inlet stack bypass flow (lpm),air temperature of the measurement (°C),ambient temperature measured by the external sensor (°C),aerosol sample conditioner tube jacket temperature (°C),OPC LED temperature (°C),internal box temperature (°C),relative humidity of the measurement (%),span deviation,mass concentration of particles derived from Lorenz-Mie calculation of OPC scattering (μg/m³),mass concentration of particles derived from Lorenz-Mie calculation of OPC scattering (μg/m³),mass concentration of particles derived from Lorenz-Mie calculation of OPC scattering (μg/m³)
DateTimeUTC,F1_M11,P_M11,Q1_M11,Q2_M11,T1_M11,T2_M11,T3_M11,T4_M11,T5_M11,U1_M11,ZSPAN_M11,X2_M11,X0_M11,X1_M11
2023-09-28 04:00:00,SystemResetWarning,0828.4,5.00,000.00,028.1,025.6,000.0,036.6,029.8,15.7,0000.0,0006.21,0014.59,0005.09
2023-09-28 04:01:00,SystemResetWarning,0828.4,5.00,000.00,028.1,025.9,000.0,036.6,029.9,15.7,0000.0,0006.17,0015.04,0005.08
2023-09-28 04:02:00,SystemResetWarning,0828.4,5.00,000.00,028.1,026.2,000.0,036.6,029.9,15.7,0000.0,0006.21,0014.94,0005.08
2023-09-28 04:03:00,SystemResetWarning,0828.4,5.00,000.00,028.1,026.4,000.0,036.7,029.9,15.7,0000.0,0006.25,0014.99,0005.09
2023-09-28 04:04:00,SystemResetWarning,0828.4,5.00,000.00,028.2,026.6,000.0,036.7,030.0,15.6,0000.0,0006.23,0014.65,0005.09
2023-09-28 04:05:00,SystemResetWarning,0828.4,5.00,000.00,028.2,026.8,000.0,036.7,030.0,15.6,0000.0,0006.14,0014.13,0005.09
2023-09-28 04:06:00,SystemResetWarning,0828.4,5.00,000.00,028.2,027.0,000.0,036.7,030.1,15.6,0000.0,0006.11,0013.88,0005.09
2023-09-28 04:07:00,SystemResetWarning,0828.4,5.00,000.00,028.3,027.1,000.0,036.7,030.1,15.5,0000.0,0006.11,0014.75,0005.09
2023-09-28 04:08:00,SystemResetWarning,0828.5,5.00,000.00,028.3,027.2,000.0,036.7,030.2,15.5,0000.0,0006.11,0015.29,0005.10
2023-09-28 04:09:00,SystemResetWarning,0828.4,5.00,000.00,028.4,027.3,000.0,036.8,030.2,15.4,0000.0,0006.09,0015.36,0005.11
2023-09-28 04:10:00,SystemResetWarning,0828.4,5.00,000.00,028.4,027.4,000.0,036.8,030.3,15.4,0000.0,0006.04,0015.02,0005.09
2023-09-28 04:11:00,SystemResetWarning,0828.4,4.98,000.00,028.4,026.8,000.0,036.8,030.3,15.4,0000.0,0006.07,0014.86,0005.09
2023-09-28 04:12:00,SystemResetWarning,0828.4,5.00,000.00,028.4,025.0,000.0,036.7,030.1,15.4,0000.0,0006.12,0014.59,0005.10
2023-09-28 04:13:00,SystemResetWarning,0828.4,5.01,000.00,028.3,024.5,000.0,036.7,030.0,15.4,0000.0,0006.12,0015.64,0005.10
2023-09-28 04:14:00,SystemResetWarning,0828.4,5.01,000.00,028.2,024.7,000.0,036.7,029.8,15.5,0000.0,0006.10,0016.33,0005.10
2023-09-28 04:15:00,SystemResetWarning,0828.4,4.99,000.00,028.2,025.0,000.0,036.7,029.7,15.6,0000.0,0006.04,0016.03,0005.09
2023-09-28 04:16:00,SystemResetWarning,0828.4,5.00,000.00,028.1,025.4,000.0,036.7,029.8,15.6,0000.0,0006.09,0016.08,0005.09
2023-09-28 04:17:00,SystemResetWarning,0828.4,5.01,000.00,028.1,025.8,000.0,036.7,029.8,15.6,0000.0,0006.11,0016.22,0005.10
2023-09-28 04:18:00,SystemResetWarning,0828.4,5.00,000.00,028.1,026.1,000.0,036.7,029.9,15.6,0000.0,0006.11,0015.44,0005.11
2023-09-28 04:19:00,SystemResetWarning,0828.4,5.00,000.00,028.2,026.3,000.0,036.7,030.0,15.6,0000.0,0006.17,0014.99,0005.11
2023-09-28 04:20:00,SystemResetWarning,0828.4,5.00,000.00,028.2,026.6,000.0,036.7,030.0,15.6,0000.0,0006.21,0015.98,0005.11
2023-09-28 04:21:00,SystemResetWarning,0828.4,5.00,000.00,028.2,026.7,000.0,036.7,030.1,15.5,0000.4,0006.26,0016.68,0005.12
2023-09-28 04:22:00,SystemResetWarning,0828.4,4.99,000.00,028.2,026.9,000.0,036.7,030.1,15.5,0001.1,0006.24,0016.41,0005.13
2023-09-28 04:23:00,SystemResetWarning,0828.4,5.01,000.00,028.3,027.0,000.0,036.7,030.2,15.5,0001.2,0006.20,0016.05,0005.13
2023-09-28 04:24:00,SystemResetWarning,0828.4,5.01,000.00,028.3,027.1,000.0,036.7,030.2,15.5,0000.8,0006.18,0015.28,0005.15
2023-09-28 04:25:00,SystemResetWarning,0828.4,4.99,000.00,028.4,027.2,000.0,036.8,030.2,15.5,0000.0,0006.17,0014.17,0005.15
2023-09-28 04:26:00,SystemResetWarning,0828.4,5.00,000.00,028.4,027.3,000.0,036.8,030.2,15.5,0000.6,0006.20,0014.56,0005.15
2023-09-28 04:27:00,SystemResetWarning,0828.4,4.99,000.00,028.4,027.3,000.0,036.8,030.3,15.4,0002.5,0006.18,0014.81,0005.16
2023-09-28 04:28:00,SystemResetWarning,0828.4,5.00,000.00,028.4,025.9,000.0,036.8,030.2,15.4,0002.9,0006.19,0015.61,0005.15
2023-09-28 04:29:00,SystemResetWarning,0828.4,5.00,000.00,028.4,024.7,000.0,036.7,030.0,15.4,0002.6,0006.21,0015.39,0005.15
2023-09-28 04:30:00,SystemResetWarning,0828.4,5.00,000.00,028.3,024.6,000.0,036.7,029.9,15.4,0002.6,0006.17,0015.34,0005.15
2023-09-28 04:31:00,SystemResetWarning,0828.4,5.01,000.00,028.2,024.9,000.0,036.7,029.8,15.5,0002.0,0006.17,0014.64,0005.15
2023-09-28 04:32:00,SystemResetWarning,0828.4,5.01,000.00,028.2,025.2,000.0,036.7,029.8,15.5,0000.0,0006.20,0013.69,0005.17
2023-09-28 04:33:00,SystemResetWarning,0828.4,4.99,000.00,028.1,025.6,000.0,036.7,029.8,15.6,0000.0,0006.23,0013.72,0005.19
2023-09-28 04:34:00,SystemResetWarning,0828.4,5.00,000.00,028.1,025.9,000.0,036.7,029.9,15.7,0000.0,0006.24,0014.28,0005.20
2023-09-28 04:35:00,SystemResetWarning,0828.4,5.00,000.00,028.2,026.2,000.0,036.7,029.9,15.7,0000.0,0006.29,0014.93,0005.20
2023-09-28 04:36:00,SystemResetWarning,0828.4,5.00,000.00,028.2,026.4,000.0,036.7,030.0,15.7,0003.2,0006.29,0015.13,0005.19
2023-09-28 04:37:00,SystemResetWarning,0828.4,5.00,000.00,028.2,026.6,000.0,036.7,030.0,15.7,0000.2,0006.28,0016.17,0005.19
2023-09-28 04:38:00,SystemResetWarning,0828.4,5.00,000.00,028.2,026.8,000.0,036.7,030.1,15.6,0003.5,0006.31,0016.31,0005.20
2023-09-28 04:39:00,SystemResetWarning,0828.4,4.99,000.00,028.2,026.9,000.0,036.7,030.1,15.6,0002.1,0006.33,0015.51,0005.21
2023-09-28 04:40:00,SystemResetWarning,0828.4,4.99,000.00,028.3,027.0,000.0,036.7,030.2,15.6,0000.0,0006.29,0015.61,0005.21
2023-09-28 04:41:00,SystemResetWarning,0828.4,4.99,000.00,028.3,027.1,000.0,036.8,030.2,15.6,0000.0,0006.29,0015.91,0005.21
2023-09-28 04:42:00,SystemResetWarning,0828.4,5.00,000.00,028.4,027.2,000.0,036.8,030.2,15.6,0000.0,0006.29,0016.26,0005.22
2023-09-28 04:43:00,SystemResetWarning,0828.4,5.01,000.00,028.4,027.3,000.0,036.8,030.3,15.5,0000.0,0006.30,0016.76,0005.23
2023-09-28 04:44:00,SystemResetWarning,0828.4,5.01,000.00,028.4,027.4,000.0,036.8,030.3,15.4,0000.0,0006.28,0017.18,0005.22
2023-09-28 04:45:00,SystemResetWarning,0828.4,4.99,000.00,028.5,027.0,000.0,036.8,030.3,15.3,0000.0,0006.25,0017.44,0005.21
2023-09-28 04:46:00,SystemResetWarning,0828.4,4.99,000.00,028.4,025.2,000.0,036.8,030.1,15.4,0000.0,0006.24,0016.83,0005.20
2023-09-28 04:47:00,SystemResetWarning,0828.4,5.01,000.00,028.4,024.5,000.0,036.7,030.0,15.4,0000.0,0006.27,0017.04,0005.22
2023-09-28 04:48:00,SystemResetWarning,0828.4,5.01,000.00,028.3,024.6,000.0,036.7,029.8,15.5,0000.0,0006.32,0016.19,0005.22
2023-09-28 04:49:00,SystemResetWarning,0828.3,4.99,000.00,028.2,025.0,000.0,036.7,029.8,15.5,0000.0,0006.33,0015.99,0005.23
2023-09-28 04:50:00,SystemResetWarning,0828.3,5.00,000.00,028.2,025.3,000.0,036.7,029.8,15.6,0000.0,0006.29,0015.94,0005.23
2023-09-28 04:51:00,SystemResetWarning,0828.4,5.00,000.00,028.2,025.7,000.0,036.7,029.8,15.6,0000.0,0006.29,0016.02,0005.24
2023-09-28 04:52:00,SystemResetWarning,0828.3,5.00,000.00,028.2,026.0,000.0,036.7,029.9,15.6,0000.0,0006.30,0015.26,0005.25
2023-09-28 04:53:00,SystemResetWarning,0828.4,5.00,000.00,028.2,026.2,000.0,036.7,029.9,15.5,0000.0,0006.32,0015.13,0005.26
2023-09-28 04:54:00,SystemResetWarning,0828.4,5.00,000.00,028.2,026.5,000.0,036.7,030.0,15.5,0002.7,0006.27,0014.38,0005.26
2023-09-28 04:55:00,SystemResetWarning,0828.4,5.00,000.00,028.2,026.6,000.0,036.7,030.0,15.5,0003.2,0006.23,0014.56,0005.25
2023-09-28 04:56:00,SystemResetWarning,0828.4,5.00,000.00,028.2,026.8,000.0,036.7,030.1,15.5,0002.9,0006.24,0014.17,0005.25
2023-09-28 04:57:00,SystemResetWarning,0828.4,5.00,000.00,028.3,026.9,000.0,036.8,030.1,15.4,0003.2,0006.26,0014.43,0005.27
2023-09-28 04:58:00,SystemResetWarning,0828.3,5.00,000.00,028.3,027.1,000.0,036.8,030.2,15.4,0003.7,0006.23,0013.85,0005.28
2023-09-28 04:59:00,SystemResetWarning,0828.4,4.99,000.00,028.3,027.2,000.0,036.8,030.2,15.4,0000.0,0006.21,0013.98,0005.28
